SCVD

Pichoy Airport

Airport
ICAO code
SCVD
IATA Code
ZAL
Summary
ICAO Region
CARSAM
ICAO Territory
Location

Valdivia, Los Rios

Serving
Valdivia
Elevation
59 ft
Coordinates
39° 38' 60" S , 73° 5' 10" W
KCC
Metar
SCVD 181200Z AUTO VRB02KT //// R35///// FG VV002 02/02 Q1025

Airport 24 km north-northeast of Valdivia, Los Lagos, Chile.

Climatology

Temperate oceanic climate (Köppen climate classification Cfb)

Runways

Designator Length Width Surface Rops
17/35 2094 45 ASP No/No

Airport map

Aerial View

SKYbrary Partners:

Safety knowledge contributed by: